2016-08-17 00:02:40 r, 18.18m,0000000004Hz,0000096963c,0000000.210s, 034.8C,00002195
2016-08-17 00:12:41 r, 18.18m,0000000005Hz,0000097141c,0000000.211s, 034.8C,00002195
2016-08-17 00:22:40 r, 18.18m,0000000005Hz,0000096937c,0000000.210s, 034.8C,00002195
2016-08-17 00:32:40 r, 18.18m,0000000005Hz,0000097077c,0000000.211s, 034.4C,00002195
2016-08-17 00:42:40 r, 18.18m,0000000005Hz,0000096807c,0000000.210s, 034.1C,00002195
2016-08-17 00:52:41 r, 18.16m,0000000004Hz,0000095878c,0000000.208s, 034.1C,00002195
2016-08-17 01:02:40 r, 18.14m,0000000005Hz,0000094071c,0000000.204s, 034.1C,00002195
2016-08-17 01:12:40 r, 18.13m,0000000005Hz,0000093278c,0000000.202s, 033.8C,00002195
2016-08-17 01:22:41 r, 18.20m,0000000005Hz,0000098835c,0000000.214s, 033.8C,00002195
2016-08-17 01:32:40 r, 18.21m,0000000005Hz,0000099889c,0000000.217s, 033.8C,00002195
2016-08-17 01:42:41 r, 18.20m,0000000004Hz,0000099678c,0000000.216s, 033.8C,00002195
2016-08-17 01:52:40 r, 18.21m,0000000004Hz,0000100649c,0000000.218s, 033.8C,00002195
2016-08-17 02:02:40 r, 18.21m,0000000005Hz,0000100621c,0000000.218s, 033.5C,00002195
2016-08-17 02:12:41 r, 18.23m,0000000005Hz,0000101754c,0000000.221s, 033.5C,00002195
2016-08-17 02:22:41 r, 18.23m,0000000004Hz,0000101425c,0000000.220s, 033.5C,00002195
2016-08-17 02:32:40 r, 18.25m,0000000005Hz,0000103483c,0000000.225s, 033.5C,00002195
2016-08-17 02:42:40 r, 18.28m,0000000004Hz,0000106401c,0000000.231s, 033.1C,00002195
2016-08-17 02:52:41 r, 18.30m,0000000004Hz,0000108534c,0000000.236s, 033.1C,00002195
2016-08-17 03:02:40 r, 18.31m,0000000004Hz,0000109478c,0000000.238s, 033.1C,00002195
2016-08-17 03:12:40 r, 18.33m,0000000004Hz,0000111426c,0000000.242s, 032.8C,00002195
2016-08-17 03:22:41 r, 18.34m,0000000004Hz,0000112407c,0000000.244s, 032.8C,00002195
2016-08-17 03:32:42 r, 18.35m,0000000004Hz,0000113305c,0000000.246s, 032.8C,00002195
2016-08-17 03:42:41 r, 18.36m,0000000004Hz,0000114345c,0000000.248s, 032.5C,00002195
2016-08-17 03:52:41 r, 18.38m,0000000004Hz,0000116482c,0000000.253s, 032.5C,00002195
2016-08-17 04:02:40 r, 18.41m,0000000004Hz,0000119062c,0000000.258s, 032.5C,00002195
2016-08-17 04:12:40 r, 18.41m,0000000003Hz,0000120213c,0000000.261s, 032.2C,00002195
2016-08-17 04:22:41 r, 18.42m,0000000003Hz,0000121040c,0000000.263s, 032.2C,00002195
2016-08-17 04:32:40 r, 18.45m,0000000004Hz,0000123916c,0000000.269s, 032.2C,00002195
2016-08-17 04:42:41 r, 18.43m,0000000004Hz,0000121974c,0000000.265s, 032.2C,00002195
2016-08-17 04:52:41 r, 18.37m,0000000004Hz,0000115219c,0000000.250s, 032.2C,00002195
2016-08-17 05:02:40 r, 18.25m,0000000005Hz,0000103776c,0000000.225s, 032.2C,00002195
2016-08-17 05:12:41 r, 17.84m,0000000007Hz,0000071152c,0000000.154s, 032.2C,00002195
2016-08-17 05:22:41 r, 17.04m,0000000014Hz,0000034061c,0000000.074s, 032.2C,00002195
2016-08-17 05:32:40 r, 15.77m,0000000043Hz,0000010681c,0000000.023s, 031.9C,00002195
2016-08-17 05:42:40 r, 14.01m,0000000220Hz,0000000000c,0000000.000s, 031.9C,00002195
2016-08-17 05:52:40 r, 12.09m,0000001310Hz,0000000000c,0000000.000s, 031.9C,00002195
2016-08-17 06:02:40 r, 10.26m,0000007002Hz,0000000000c,0000000.000s, 031.9C,00002195
2016-08-17 06:12:41 r, 08.74m,0000028336Hz,0000000000c,0000000.000s, 031.9C,00002195
2016-08-17 06:22:40 r, 07.63m,0000078955Hz,0000000000c,0000000.000s, 031.9C,00002195
2016-08-17 06:32:40 r, 06.86m,0000160974Hz,0000000000c,0000000.000s, 031.9C,00002195
2016-08-17 06:42:40 r, 06.33m,0000260924Hz,0000000000c,0000000.000s, 032.2C,00002195
2016-08-17 06:52:40 r, 05.97m,0000364449Hz,0000000000c,0000000.000s, 032.2C,00002195
2016-08-17 07:02:40 r, 00.00m,0000459675Hz,0000000000c,0000000.000s, 032.2C,00002195
2016-08-17 07:12:40 r, 00.00m,0000547276Hz,0000000000c,0000000.000s, 032.2C,00002195
2016-08-17 07:22:40 r, 00.00m,0000564513Hz,0000000000c,0000000.000s, 032.5C,00002195
2016-08-17 07:32:40 r, 00.00m,0000564487Hz,0000000000c,0000000.000s, 032.8C,00002195
2016-08-17 07:42:40 r, 00.00m,0000564480Hz,0000000000c,0000000.000s, 032.8C,00002195
2016-08-17 07:52:41 r, 00.00m,0000564496Hz,0000000000c,0000000.000s, 033.1C,00002195
2016-08-17 08:02:40 r, 00.00m,0000564548Hz,0000000000c,0000000.000s, 033.1C,00002195
2016-08-17 08:12:40 r, 00.00m,0000564532Hz,0000000000c,0000000.000s, 033.5C,00002195
2016-08-17 08:22:41 r, 00.00m,0000564594Hz,0000000000c,0000000.000s, 033.8C,00002195
2016-08-17 08:32:40 r, 00.00m,0000564727Hz,0000000000c,0000000.000s, 034.1C,00002195
2016-08-17 08:42:40 r, 00.00m,0000564679Hz,0000000000c,0000000.000s, 034.4C,00002195
2016-08-17 08:52:41 r, 00.00m,0000564633Hz,0000000000c,0000000.000s, 035.1C,00002195
2016-08-17 09:02:40 r, 00.00m,0000564769Hz,0000000000c,0000000.000s, 035.1C,00002195
2016-08-17 09:12:40 r, 00.00m,0000564954Hz,0000000000c,0000000.000s, 037.0C,00002195
2016-08-17 09:22:42 r, 00.00m,0000565231Hz,0000000000c,0000000.000s, 039.9C,00002195
2016-08-17 09:32:40 r, 00.00m,0000565510Hz,0000000000c,0000000.000s, 042.5C,00002195
2016-08-17 09:42:40 r, 00.00m,0000565641Hz,0000000000c,0000000.000s, 045.1C,00002195
2016-08-17 09:52:41 r, 00.00m,0000565791Hz,0000000000c,0000000.000s, 047.0C,00002195
2016-08-17 10:02:40 r, 00.00m,0000565874Hz,0000000000c,0000000.000s, 048.6C,00002195
2016-08-17 10:12:40 r, 00.00m,0000565980Hz,0000000000c,0000000.000s, 049.6C,00002195
2016-08-17 10:22:40 r, 00.00m,0000565972Hz,0000000000c,0000000.000s, 050.9C,00002195
2016-08-17 10:32:43 r, 00.00m,0000566097Hz,0000000000c,0000000.000s, 051.5C,00002195
2016-08-17 10:42:40 r, 00.00m,0000566164Hz,0000000000c,0000000.000s, 052.5C,00002195
2016-08-17 10:52:41 r, 00.00m,0000566131Hz,0000000000c,0000000.000s, 052.8C,00002195
2016-08-17 11:02:41 r, 00.00m,0000566243Hz,0000000000c,0000000.000s, 053.5C,00002195
2016-08-17 11:12:41 r, 00.00m,0000566195Hz,0000000000c,0000000.000s, 054.1C,00002195
2016-08-17 11:22:43 r, 00.00m,0000566265Hz,0000000000c,0000000.000s, 054.7C,00002195
2016-08-17 11:32:40 r, 00.00m,0000566282Hz,0000000000c,0000000.000s, 055.7C,00002195
2016-08-17 11:42:40 r, 00.00m,0000566198Hz,0000000000c,0000000.000s, 056.0C,00002195
2016-08-17 11:52:42 r, 00.00m,0000566209Hz,0000000000c,0000000.000s, 056.0C,00002195
2016-08-17 12:02:41 r, 00.00m,0000566216Hz,0000000000c,0000000.000s, 056.0C,00002195
2016-08-17 12:12:40 r, 00.00m,0000566260Hz,0000000000c,0000000.000s, 056.4C,00002195
2016-08-17 12:22:41 r, 00.00m,0000566251Hz,0000000000c,0000000.000s, 056.4C,00002195
2016-08-17 12:32:43 r, 00.00m,0000566243Hz,0000000000c,0000000.000s, 056.7C,00002195
2016-08-17 12:42:40 r, 00.00m,0000566299Hz,0000000000c,0000000.000s, 057.0C,00002195
2016-08-17 12:52:41 r, 00.00m,0000566292Hz,0000000000c,0000000.000s, 057.6C,00002195
2016-08-17 13:02:41 r, 00.00m,0000566309Hz,0000000000c,0000000.000s, 057.6C,00002195
2016-08-17 13:12:40 r, 00.00m,0000566254Hz,0000000000c,0000000.000s, 058.0C,00002195
2016-08-17 13:22:43 r, 00.00m,0000566240Hz,0000000000c,0000000.000s, 058.0C,00002195
2016-08-17 13:32:40 r, 00.00m,0000566214Hz,0000000000c,0000000.000s, 058.3C,00002195
2016-08-17 13:42:40 r, 00.00m,0000566246Hz,0000000000c,0000000.000s, 058.6C,00002195
2016-08-17 13:52:41 r, 00.00m,0000566175Hz,0000000000c,0000000.000s, 058.6C,00002195
2016-08-17 14:02:41 r, 00.00m,0000566177Hz,0000000000c,0000000.000s, 058.6C,00002195
2016-08-17 14:12:43 r, 00.00m,0000566160Hz,0000000000c,0000000.000s, 058.6C,00002195
2016-08-17 14:22:40 r, 00.00m,0000566117Hz,0000000000c,0000000.000s, 058.6C,00002195
2016-08-17 14:32:40 r, 00.00m,0000566147Hz,0000000000c,0000000.000s, 058.9C,00002195
2016-08-17 14:42:40 r, 00.00m,0000566175Hz,0000000000c,0000000.000s, 058.9C,00002195
2016-08-17 14:52:41 r, 00.00m,0000566131Hz,0000000000c,0000000.000s, 058.9C,00002195
2016-08-17 15:02:41 r, 00.00m,0000566132Hz,0000000000c,0000000.000s, 059.3C,00002195
2016-08-17 15:12:40 r, 00.00m,0000566093Hz,0000000000c,0000000.000s, 059.3C,00002195
2016-08-17 15:22:43 r, 00.00m,0000566062Hz,0000000000c,0000000.000s, 059.6C,00002195
2016-08-17 15:32:41 r, 00.00m,0000566167Hz,0000000000c,0000000.000s, 059.6C,00002195
2016-08-17 15:42:40 r, 00.00m,0000566039Hz,0000000000c,0000000.000s, 059.3C,00002195
2016-08-17 15:52:41 r, 00.00m,0000565991Hz,0000000000c,0000000.000s, 059.3C,00002195
2016-08-17 16:02:41 r, 00.00m,0000565979Hz,0000000000c,0000000.000s, 058.9C,00002195
2016-08-17 16:12:40 r, 00.00m,0000566027Hz,0000000000c,0000000.000s, 059.3C,00002195
2016-08-17 16:22:41 r, 00.00m,0000566052Hz,0000000000c,0000000.000s, 058.6C,00002195
2016-08-17 16:32:41 r, 00.00m,0000566000Hz,0000000000c,0000000.000s, 058.6C,00002195
2016-08-17 16:42:40 r, 00.00m,0000565987Hz,0000000000c,0000000.000s, 058.0C,00002195
2016-08-17 16:52:41 r, 00.00m,0000565941Hz,0000000000c,0000000.000s, 057.3C,00002195
2016-08-17 17:02:40 r, 00.00m,0000565956Hz,0000000000c,0000000.000s, 056.7C,00002195
2016-08-17 17:12:40 r, 00.00m,0000565874Hz,0000000000c,0000000.000s, 056.4C,00002195
2016-08-17 17:22:43 r, 00.00m,0000565818Hz,0000000000c,0000000.000s, 055.7C,00002195
2016-08-17 17:32:41 r, 00.00m,0000565752Hz,0000000000c,0000000.000s, 055.4C,00002195
2016-08-17 17:42:40 r, 00.00m,0000565730Hz,0000000000c,0000000.000s, 055.1C,00002195
2016-08-17 17:52:42 r, 00.00m,0000565731Hz,0000000000c,0000000.000s, 054.4C,00002195
2016-08-17 18:02:40 r, 00.00m,0000565676Hz,0000000000c,0000000.000s, 053.5C,00002195
2016-08-17 18:12:43 r, 00.00m,0000565683Hz,0000000000c,0000000.000s, 052.8C,00002195
2016-08-17 18:22:41 r, 00.00m,0000565555Hz,0000000000c,0000000.000s, 052.5C,00002195
2016-08-17 18:32:40 r, 00.00m,0000565502Hz,0000000000c,0000000.000s, 052.2C,00002195
2016-08-17 18:42:40 r, 00.00m,0000565525Hz,0000000000c,0000000.000s, 051.5C,00002195
2016-08-17 18:52:41 r, 00.00m,0000565467Hz,0000000000c,0000000.000s, 050.9C,00002195
2016-08-17 19:02:43 r, 00.00m,0000565368Hz,0000000000c,0000000.000s, 050.2C,00002195
2016-08-17 19:12:40 r, 00.00m,0000565323Hz,0000000000c,0000000.000s, 049.6C,00002195
2016-08-17 19:22:40 r, 00.00m,0000565356Hz,0000000000c,0000000.000s, 048.9C,00002195
2016-08-17 19:32:41 r, 00.00m,0000565266Hz,0000000000c,0000000.000s, 048.3C,00002195
2016-08-17 19:42:40 r, 00.00m,0000565192Hz,0000000000c,0000000.000s, 047.3C,00002195
2016-08-17 19:52:40 r, 00.00m,0000565273Hz,0000000000c,0000000.000s, 046.4C,00002195
2016-08-17 20:02:40 r, 00.00m,0000484727Hz,0000000000c,0000000.000s, 045.7C,00002195
2016-08-17 20:12:40 r, 06.15m,0000308127Hz,0000000000c,0000000.000s, 044.4C,00002195
2016-08-17 20:22:40 r, 06.60m,0000202834Hz,0000000000c,0000000.000s, 043.5C,00002195
2016-08-17 20:32:40 r, 07.21m,0000116361Hz,0000000000c,0000000.000s, 042.8C,00002195
2016-08-17 20:42:40 r, 08.05m,0000053850Hz,0000000000c,0000000.000s, 042.2C,00002195
2016-08-17 20:52:40 r, 09.19m,0000018893Hz,0000000000c,0000000.000s, 041.5C,00002195
2016-08-17 21:02:43 r, 10.72m,0000004604Hz,0000000000c,0000000.000s, 040.9C,00002195
2016-08-17 21:12:40 r, 12.53m,0000000867Hz,0000000000c,0000000.000s, 040.6C,00002195
2016-08-17 21:22:41 r, 14.37m,0000000159Hz,0000000000c,0000000.000s, 040.2C,00002195
2016-08-17 21:32:41 r, 15.83m,0000000041Hz,0000011245c,0000000.024s, 039.6C,00002195
2016-08-17 21:42:40 r, 16.57m,0000000021Hz,0000022265c,0000000.048s, 039.3C,00002195
2016-08-17 21:52:40 r, 16.22m,0000000029Hz,0000015997c,0000000.035s, 039.0C,00002195
2016-08-17 22:02:42 r, 16.19m,0000000029Hz,0000015665c,0000000.034s, 039.0C,00002195
2016-08-17 22:12:40 r, 15.94m,0000000037Hz,0000012316c,0000000.027s, 039.3C,00002195
2016-08-17 22:22:41 r, 15.39m,0000000049Hz,0000007463c,0000000.016s, 039.3C,00002195
2016-08-17 22:32:41 r, 15.50m,0000000055Hz,0000008283c,0000000.018s, 039.6C,00002195
2016-08-17 22:42:40 r, 15.56m,0000000053Hz,0000008714c,0000000.019s, 039.3C,00002195
2016-08-17 22:52:41 r, 15.85m,0000000041Hz,0000011448c,0000000.025s, 038.3C,00002195
2016-08-17 23:02:41 r, 16.04m,0000000034Hz,0000013621c,0000000.030s, 037.3C,00002195
2016-08-17 23:12:41 r, 16.10m,0000000033Hz,0000014322c,0000000.031s, 037.0C,00002195
2016-08-17 23:22:41 r, 13.69m,0000000035Hz,0000001567c,0000000.003s, 037.0C,00002195
2016-08-17 23:32:42 r, 15.78m,0000000043Hz,0000010691c,0000000.023s, 036.7C,00002195
2016-08-17 23:42:41 r, 15.81m,0000000042Hz,0000010976c,0000000.024s, 036.4C,00002195
2016-08-17 23:52:41 r, 15.77m,0000000044Hz,0000010578c,0000000.023s, 035.7C,00002195
